This demonstration page uses our WeatherBlox Daily Observations layout. Learn more.

Left ArrowRight Arrow

Hourly Observations for January 3, 2022

Temp ( °F °C ) Dew Point ( °F °C ) Humidity (%) Winds ( mph kmh ) Pressure ( in mb ) Visibility ( mi km ) Precip ( " mm )
12:51 am 00:51 Clear 33 0.6 21 -6.1 61 61 E 9 15 30.33 1027 10 16 0.00 0.00
1:51 am 01:51 Clear 35 1.7 20 -6.7 54 54 ESE 12 19 30.31 1027 10 16 0.00 0.00
2:51 am 02:51 Clear 33 0.6 21 -6.1 61 61 ESE 13 20 30.31 1026 10 16 0.00 0.00
3:51 am 03:51 Clear 32 0 21 -6.1 64 64 E 9 15 30.31 1026 10 16 0.00 0.00
4:51 am 04:51 Clear 33 0.6 21 -6.1 61 61 E 9 15 30.31 1026 10 16 0.00 0.00
5:51 am 05:51 Clear 33 0.6 22 -5.6 64 64 ESE 12 19 30.33 1027 10 16 0.00 0.00
6:51 am 06:51 Clear 33 0.6 21 -6.1 61 61 ESE 13 20 30.33 1027 10 16 0.00 0.00
7:51 am 07:51 Sunny 33 0.6 21 -6.1 61 61 E 10 17 30.33 1027 10 16 0.00 0.00
8:51 am 08:51 Sunny 36 2.2 22 -5.6 57 57 ESE 14 22 30.34 1027 10 16 0.00 0.00
9:51 am 09:51 Sunny 39 3.9 21 -6.1 48 48 ESE 12 19 30.35 1028 10 16 0.00 0.00
10:51 am 10:51 Sunny 43 6.1 16 -8.9 34 34 ESE 9 15 30.33 1027 10 16 0.00 0.00
11:51 am 11:51 Sunny 46 7.8 20 -6.7 35 35 SE 10 17 30.29 1026 10 16 0.00 0.00
12:51 pm 12:51 Sunny 49 9.4 20 -6.7 32 32 SSE 12 19 30.24 1024 10 16 0.00 0.00
1:51 pm 13:51 Sunny 50 10 19 -7.2 29 29 S 10 17 30.20 1023 10 16 0.00 0.00
2:51 pm 14:51 Sunny 52 11.1 21 -6.1 30 30 S 8 13 30.19 1022 10 16 0.00 0.00
3:51 pm 15:51 Sunny 52 11.1 21 -6.1 30 30 SSE 9 15 30.17 1022 10 16 0.00 0.00
4:51 pm 16:51 Sunny 51 10.6 21 -6.1 31 31 S 6 9 30.17 1022 10 16 0.00 0.00
5:51 pm 17:51 Clear 42 5.6 26 -3.3 53 53 ENE 6 9 30.21 1023 10 16 0.00 0.00
6:51 pm 18:51 Clear 39 3.9 28 -2.2 65 65 ENE 7 11 30.22 1023 10 16 0.00 0.00
7:51 pm 19:51 Clear 37 2.8 27 -2.8 67 67 E 8 13 30.23 1024 10 16 0.00 0.00
8:51 pm 20:51 Clear 36 2.2 26 -3.3 67 67 ESE 8 13 30.25 1024 10 16 0.00 0.00
9:51 pm 21:51 Clear 33 0.6 26 -3.3 75 75 ESE 6 9 30.26 1025 10 16 0.00 0.00
10:51 pm 22:51 Clear 34 1.1 26 -3.3 73 73 SE 6 9 30.24 1024 10 16 0.00 0.00
11:51 pm 23:51 Clear 34 1.1 26 -3.3 73 73 SE 7 11 30.24 1024 10 16 0.00 0.00

Powered by AerisWeather